Погода в Тюково

Россия / Орловская область     52°57′14″N   37°04′54″E
темп.,
°C
ветер,
м/с
пор.,
м/с
влажн.,
%
обл.,
%
осадки,
мм/ч
давл.,
гПа
погр.,
м
7 марта, вс
вс700:00−12з458932 0.0 101978
03:00−12зюз5109116 0.0 1017189
06:00−11юз7168816 0.0 1014357
09:00−7юз9178358 0.0 1011600
12:00−4юз111885100 0.0 1006994
15:00−2зюз121990100 0.3 10021263
18:00−1зюз111988100 0.5 10001156
21:00−2зсз91677100 1.5 10011372
8 марта, пн
пн800:00−7з41181100 0.0 1002216
03:00−8зюз5128452 0.0 1002218
06:00−7зюз5139362 0.1 1001412
09:00−7з6139057 0.1 1002579
12:00−5з7108868 0.1 1003922
15:00−4зсз6107674 0.2 10051204
18:00−8сз48850 0.0 1007182
21:00−11зсз479017 0.0 1010135
9 марта, вт
вт900:00−12зсз349524 0.0 101174
03:00−12зсз359742 0.1 1013109
06:00−13ссз239696 0.1 101550
09:00−13ссз359698 0.1 1017199
12:00−11ссз359097 0.0 1018498
15:00−10сз458698 0.1 1019673
18:00−12сз3393100 0.1 101946
21:00−16сз349261 0.1 102238
10 марта, ср
ср1000:00−18ссз23930 0.0 102322
03:00−20сз22980 0.0 102420
06:00−20зсз22977 0.0 102520
09:00−17зсз119414 0.0 102671
12:00−12зюз128898 0.0 1026305
15:00−10ююз238799 0.1 1025450
18:00−12ю239498 0.0 102430
21:00−12ююв359699 0.3 1025131
11 марта, чт
чт1100:00−12ююв4795100 0.9 1025240
03:00−12ююв5895100 1.6 1025235
06:00−11ю479597 0.3 1024171
09:00−10ююз589397 0.4 1023299
12:00−7ююз589192 0.0 1022328
15:00−5ююз6108894 0.0 1021475
18:00−5ююз51289100 0.0 1020450
21:00−6ююз51385100 0.0 1020398